AirNav   GEt a FREE Bose Revolve Bluetooth Speaker
 
 864 users online  

T19 Duval-Freer Airport
Freer, Texas, USA

GOING TO FREER?


FAA INFORMATION EFFECTIVE 06 DECEMBER 2018

Location

FAA Identifier: T19
Lat/Long: 27-53-19.3000N / 098-35-59.8500W
27-53.321667N / 098-35.997500W
27.8886944 / -98.5999583
(estimated)
Elevation: 564 ft. / 171.9 m (surveyed)
Variation: 07E (1985)
From city: 1 mile NE of FREER, TX
Time zone: UTC -6 (UTC -5 during Daylight Saving Time)
Zip code: 78357

Airport Operations

Airport use: Open to the public
Activation date: 11/1947
Control tower: no
ARTCC: HOUSTON CENTER
FSS: SAN ANGELO FLIGHT SERVICE STATION
NOTAMs facility: SJT (NOTAM-D service available)
Attendance: UNATNDD
Wind indicator: lighted
Segmented circle: yes
Lights: SS-SR
Beacon: white-green (lighted land airport)
Operates sunset to sunrise.

Airport Communications

CTAF: 122.9

Nearby radio navigation aids

VOR radial/distance  VOR name  Freq  Var
ALIr280/(32.0)ALICE VOR114.5006E

 
NDB name  Hdg/Dist  Freq  Var  ID
HEBBRONVILLE007/33.026606EHBV .... -... ...-

Airport Services

Parking: tiedowns
Airframe service: NONE
Powerplant service: NONE

Runway Information

Runway 14/32

Dimensions: 3200 x 60 ft. / 975 x 18 m
Surface: asphalt, in poor condition
BROKEN PIECES OF ASPHALT ALONG RWY EDGES AND THLDS.
Weight bearing capacity: 
Single wheel: 24.0
Runway edge lights: low intensity
SEVERAL RY AND THLD LIGHTS INOPERATIVE AND ARE MOUNTED ON NON-FRANGIBLE STEEL RODS.
RUNWAY 14  RUNWAY 32
Gradient: 1.1%1.1%
Traffic pattern: leftleft
Markings: basic, in good conditionbasic, in good condition
Obstructions: 12 ft. brush, 360 ft. from runway, 13:1 slope to clear42 ft. pole, 977 ft. from runway, 86 ft. right of centerline, 18:1 slope to clear

Airport Ownership and Management from official FAA records

Ownership: Publicly-owned
Owner: DUVAL CO - CITY OF FREER
CITY OF FREER
FREER, TX 78357
Phone 361-394-6612
Manager: ANA GARCIA
P.O. DRAWER N
FREER, TX 78357
Phone 361-394-6612
MAYOR.

Airport Operational Statistics

Aircraft operations: 100/year *
100% transient general aviation
* for 12-month period ending 23 March 2017

Additional Remarks

TO HAVE GATE UNLOCKED, CALL 361-394-6002 (POLICE DEPT).
APRON AND TAXIWAY MARKINGS FADED.

Instrument Procedures

There are no published instrument procedures at T19.

Some nearby airports with instrument procedures:

KNOG - Orange Grove Naval Auxiliary Field (30 nm E)
KALI - Alice International Airport (32 nm E)
KHBV - Jim Hogg County Airport (33 nm S)
KIKG - Kleberg County Airport (36 nm SE)
8T6 - Live Oak County Airport (38 nm NE)
 
Loc | Ops | Rwys | IFR | FBO | Links
Com | Nav | Svcs | Stats | Notes


 
Area around T19 (Duval-Freer Airport)
 
Road maps at: MapQuest Bing Google
 
Aerial photo
WARNING: Photo may not be current or correct
Aerial photo of T19 (Duval-Freer Airport)
Photo by Gregg Gilliam
Taken in January 2009

Do you have a better or more recent aerial photo of Duval-Freer Airport that you would like to share? If so, please send us your photo.

 
Sectional chart

 
Airport distance calculator
Flying to Duval-Freer Airport? Find the distance to fly.

From to T19

Sunrise and sunset
Times for 14-Dec-2018
 Local
(UTC-6)
 Zulu
(UTC)
Morning civil twilight06:5312:53
Sunrise07:1813:18
Sunset17:4023:40
Evening civil twilight18:0600:06

Current date and time
Zulu (UTC)  15-Dec-2018 01:41:55
Local (UTC-6)  14-Dec-2018 19:41:55
 
METAR
KNOG 
29nm E 
150056Z AUTO 31012KT 10SM OVC065 16/02 A3015 RMK AO2 SLP192 T01560017 PWINO PNO $
KALI 
32nm E 
150053Z AUTO 29012KT 10SM OVC065 16/01 A3015 RMK AO2 SLP208 T01560011
KHBV 
33nm S 
150110Z AUTO 33012G16KT 10SM CLR 13/M05 A3019 RMK AO2 T01291055
KIKG 
36nm SE 
150115Z AUTO 27004KT 10SM SCT060 14/02 A3017 RMK AO2 T01380015
KCOT 
47nm NW 
150053Z AUTO 31008KT 10SM CLR 13/M03 A3018 RMK AO2 SLP219 T01331033
KNQI 
48nm SE 
150056Z 29013KT 10SM OVC065 16/01 A3015 RMK AO2 SLP205 T01610006 $
KBKS 
48nm SE 
150115Z AUTO 29008KT 10SM CLR 14/M03 A3017 RMK AO1 T01441032
TAF
KALI 
32nm E 
141720Z 1418/1518 30025G35KT P6SM FEW045 FM142200 31015G25KT P6SM FEW045 FM150100 31010KT P6SM FEW045
NOTAMs
Click for the latest NOTAMs
NOTAMs are issued by the DoD/FAA and will open in a separate window not controlled by AirNav.

 

 
 

Would you like to see your business listed on this page?

 If your business provides an interesting product or service to pilots, flight crews, aircraft, or users of the Duval-Freer Airport, you should consider listing it here.  To start the listing process, click on the button below
 
Add a business
 

Other Pages about Duval-Freer Airport

Update a link
 
Copyright © AirNav, LLC. All rights reserved. Privacy Policy  Contact